Wind_Speed
3 4 8 15 14 2 3 5 6 8 8 4 22 19 15 24 27 35 41 38 30 39 33 31 32 23 17 17 20 22 26 28 33 42 47 51 54 53 54 52 50 49 47 46
3 7 15 2 4 7 7 10 14 8 10 4 12 20 20 21 24 31 37 34 29 32 33 27 21 19 16 17 16 20 22 27 31 37 43 49 52 55 56 54 54 52 50 49
9 5 5 7 5 8 5 6 10 10 6 6 7 8 4 7 10 25 29 24 25 21 17 25 30 29 24 20 16 19 22 24 29 34 40 45 50 50 54 58 58 56 53 51
6 4 6 4 6 8 9 10 11 6 4 4 5 9 5 8 10 2 14 16 10 10 21 31 37 37 31 27 23 18 20 24 29 33 39 43 47 49 50 54 55 55 54 53
7 5 4 4 8 7 10 1 2 2 3 3 3 4 6 3 6 7 4 4 5 8 23 41 41 38 37 30 24 17 20 20 26 32 36 40 43 45 47 47 49 53 54 54
7 2 4 7 4 6 3 3 5 4 2 5 10 8 1 4 4 1 11 13 10 11 23 39 33 32 35 38 33 23 18 18 18 26 32 36 39 41 44 45 43 45 51 53
1 4 3 3 1 2 2 4 4 4 1 8 3 3 5 5 5 5 6 18 12 19 32 31 31 30 30 33 36 34 26 20 15 14 23 30 35 38 40 41 40 42 44 49
3 17 8 6 7 7 7 8 5 6 6 12 2 9 7 8 4 15 11 7 14 35 29 28 28 27 28 30 28 28 28 24 20 19 17 21 27 33 38 40 39 39 40 41
5 10 1 5 4 7 4 6 5 2 3 2 8 12 14 5 5 10 21 28 26 26 29 30 31 32 31 30 29 28 24 21 19 17 19 21 24 27 30 34 36 37 38 39
3 7 7 3 2 4 7 3 1 1 3 9 6 5 13 6 9 14 15 20 27 29 30 32 32 31 30 31 30 26 27 25 24 22 20 19 21 24 28 29 30 32 35 38
3 5 7 3 6 8 1 4 4 3 4 5 7 8 4 8 12 8 6 13 22 25 26 26 26 28 30 29 29 28 27 27 25 25 25 25 22 20 23 26 30 33 34 37
6 5 7 13 7 3 3 7 8 5 7 5 6 8 14 13 11 12 13 17 20 22 23 23 25 27 28 32 31 31 30 29 29 28 28 27 25 25 24 24 25 29 31 36
2 4 5 5 3 3 3 3 6 5 2 11 11 5 11 10 13 15 13 15 17 22 26 28 28 30 33 34 35 35 31 31 32 30 30 29 29 29 28 27 25 28 30 34
4 4 13 15 13 4 7 6 4 4 7 11 9 8 11 5 12 10 9 10 12 19 23 22 25 28 29 31 33 35 37 33 32 32 33 32 30 31 32 30 29 28 30 32
5 10 9 12 13 4 8 10 16 16 16 11 15 20 22 1 3 8 8 12 13 14 18 23 22 26 27 29 30 33 34 39 36 35 32 34 34 32 32 33 32 32 32 32
2 4 1 4 11 14 17 17 18 17 17 14 17 21 7 4 2 7 12 11 15 19 23 23 21 22 25 27 29 32 34 35 38 39 37 35 35 35 34 35 34 33 33 36
3 3 8 20 7 4 7 14 14 13 18 12 16 3 1 2 4 7 12 9 12 20 24 25 25 27 28 27 28 30 31 32 34 36 39 41 41 40 37 35 34 34 34 33
9 8 4 8 4 19 7 4 0 5 2 5 6 3 5 8 10 12 14 10 16 24 27 28 28 30 29 29 29 30 29 32 35 38 39 41 42 44 43 39 39 33 33 34
16 11 5 8 14 13 16 4 4 4 5 5 5 3 5 11 9 18 11 15 21 24 28 28 29 33 34 32 31 31 30 33 35 37 41 43 44 47 47 47 44 43 39 35
9 13 10 2 4 6 3 2 1 4 4 7 9 5 7 5 3 10 21 19 21 27 32 33 34 36 39 39 37 37 38 39 38 41 44 44 46 48 50 50 50 47 43 43
3 2 12 11 8 6 5 5 5 5 5 8 9 15 17 5 16 28 29 25 27 35 35 34 35 38 41 41 42 44 45 46 44 44 46 48 49 50 51 53 52 52 48 43
4 4 3 2 2 8 6 3 5 4 20 22 19 19 20 25 26 27 32 35 34 38 39 39 38 43 46 45 47 49 51 51 49 51 52 52 52 53 55 55 56 53 51 46
4 6 4 9 6 4 7 12 30 32 25 31 26 30 27 25 28 31 32 34 37 39 40 39 43 48 50 49 49 50 55 54 56 58 59 59 58 57 57 58 57 55 51 49
6 9 9 13 11 14 27 36 36 34 33 34 33 28 28 27 28 28 30 34 38 40 42 43 43 47 52 53 53 53 56 56 58 61 64 65 64 62 60 57 57 55 51 45
11 4 6 13 15 21 29 34 37 32 29 29 28 24 24 22 24 26 32 35 39 43 45 44 44 45 52 53 58 57 54 53 58 62 63 62 59 59 58 57 53 53 50 40
18 17 10 14 23 21 29 35 27 20 20 24 25 24 23 23 25 28 34 36 40 44 46 48 50 46 52 54 58 57 55 52 53 55 53 48 46 47 49 51 55 51 40 35
Wind_Direction
158 125 204 219 207 264 285 242 253 260 258 310 286 279 278 276 269 274 279 279 281 293 309 316 324 329 329 318 295 280 268 257 246 237 234 234 235 235 235 234 234 233 231 231
59 218 227 120 167 227 250 271 272 277 269 183 270 284 282 265 270 259 268 281 291 300 319 343 353 344 335 320 303 291 270 254 247 240 238 235 237 236 236 235 233 231 229 229
200 218 182 193 195 248 212 231 264 257 326 253 309 276 231 274 255 270 265 281 291 308 355 8 4 354 344 324 297 284 282 263 253 245 237 236 235 237 238 235 232 230 228 228
232 271 194 167 214 190 265 234 254 275 353 261 23 295 208 257 268 341 295 300 331 37 33 23 15 6 347 336 318 269 267 271 262 252 246 239 237 236 238 238 235 232 230 229
249 179 181 176 221 150 230 179 243 168 199 345 323 291 258 214 276 260 242 129 44 47 30 18 10 11 11 359 346 310 283 269 266 260 255 249 243 242 243 241 237 232 230 230
242 302 206 221 221 198 115 81 48 49 67 280 206 193 285 187 207 301 352 356 360 23 22 9 8 5 5 12 12 4 345 318 287 271 263 261 257 252 248 244 240 236 231 230
305 225 278 192 193 34 90 70 322 325 15 236 342 254 236 247 267 17 306 322 339 22 5 11 6 7 8 6 10 15 15 4 332 299 283 276 268 262 257 253 249 240 234 231
203 287 184 175 204 193 187 171 201 223 263 275 92 258 266 230 277 342 11 332 14 17 27 22 22 13 13 10 8 8 11 13 1 338 318 295 282 275 270 265 257 252 248 242
203 265 240 212 167 166 164 189 209 266 53 317 252 273 295 191 73 18 16 33 44 28 25 26 26 26 21 23 18 11 2 3 359 349 335 323 304 289 278 270 265 263 258 253
350 305 212 288 80 253 184 153 154 334 230 240 260 248 245 14 46 42 37 23 21 18 17 18 20 20 21 20 22 18 19 14 6 354 340 326 312 300 289 281 277 269 264 258
149 196 266 358 200 202 142 244 230 287 173 231 251 244 220 63 85 92 57 34 20 14 12 8 4 7 7 11 13 10 8 8 4 360 355 342 327 310 293 287 280 271 265 261
210 202 227 264 258 241 235 232 187 220 219 217 246 248 280 95 70 81 50 34 24 19 8 2 1 2 3 2 3 8 4 0 358 356 352 348 344 328 313 302 292 282 272 267
287 215 294 267 264 51 214 258 251 276 225 244 264 265 360 29 48 50 57 41 30 23 9 2 2 3 2 3 1 357 357 355 355 354 348 344 341 344 335 315 300 292 286 278
341 256 246 256 269 323 261 221 260 238 261 274 253 288 298 2 345 20 23 22 13 357 2 1 355 351 353 353 354 352 351 355 349 347 347 345 345 343 340 336 319 299 292 285
210 258 250 262 267 299 285 289 276 272 273 266 282 286 278 255 352 330 329 337 345 355 355 359 353 346 348 346 343 341 341 342 346 343 340 341 337 338 337 335 332 327 307 291
280 270 226 254 278 281 277 271 270 274 275 266 262 262 78 121 271 299 321 320 340 341 339 342 342 334 340 339 337 332 333 335 335 335 336 336 332 333 330 330 328 329 323 308
245 281 270 271 284 306 262 247 260 259 262 261 260 270 191 252 264 292 309 292 316 332 331 329 330 330 331 331 331 330 333 333 331 330 331 331 331 328 326 324 323 320 319 318
243 249 257 274 29 266 288 47 308 232 77 122 110 151 219 248 274 287 295 260 315 325 325 322 320 320 320 319 321 321 325 328 329 329 330 329 330 328 324 322 319 315 311 309
216 234 256 250 253 281 292 235 188 178 252 184 166 227 268 299 291 281 261 245 298 313 316 313 312 314 313 310 311 311 313 319 321 321 322 324 328 326 326 322 317 314 307 303
212 225 238 154 228 225 251 208 111 111 281 216 201 236 253 296 249 271 283 269 297 315 315 312 309 309 309 309 308 308 308 310 310 314 316 318 319 319 319 320 317 314 310 300
6 358 225 235 246 283 228 222 139 95 270 223 255 269 245 214 256 278 289 277 294 311 308 308 305 304 307 306 305 304 304 303 306 306 307 310 311 310 312 314 314 312 309 304
195 187 205 72 24 272 186 155 165 230 295 292 291 288 285 295 296 289 291 283 291 303 305 305 304 304 305 303 302 301 300 305 304 303 303 303 302 303 305 306 307 308 305 301
280 192 203 197 212 220 199 267 293 292 284 287 285 301 304 296 294 298 291 286 294 299 302 303 304 303 302 302 302 301 301 303 302 301 300 299 300 299 300 301 300 302 301 298
242 198 242 263 246 248 272 277 281 287 287 290 295 302 302 294 294 288 287 292 298 301 303 304 303 302 302 302 302 300 301 300 300 299 299 298 297 296 294 294 295 296 295 291
241 185 251 257 260 268 267 265 270 281 289 291 294 295 296 294 293 294 296 299 301 303 305 306 304 301 300 301 299 299 298 298 297 298 297 297 297 296 294 292 290 288 287 281
242 251 247 256 260 254 266 271 280 287 283 282 288 291 296 301 302 303 301 304 306 307 308 307 306 303 302 300 299 299 298 297 297 296 296 294 293 293 292 291 289 283 280 277
Height
1525 1530 1532 1520 1520 1520 1522 1524 1526 1517 1507 1509 1496 1491 1490 1485 1481 1470 1462 1457 1460 1457 1456 1459 1458 1456 1454 1453 1452 1450 1449 1450 1450 1452 1454 1458 1460 1467 1470 1476 1481 1487 1492 1497
1527 1528 1516 1515 1518 1520 1522 1523 1519 1509 1502 1508 1498 1486 1480 1473 1464 1463 1455 1451 1456 1453 1454 1455 1453 1450 1448 1447 1445 1442 1439 1437 1438 1441 1442 1446 1451 1455 1462 1467 1470 1476 1481 1487
1517 1511 1509 1514 1516 1519 1520 1521 1509 1512 1507 1501 1498 1482 1476 1461 1456 1452 1450 1454 1453 1453 1452 1450 1446 1444 1440 1438 1437 1436 1435 1434 1432 1432 1434 1437 1441 1445 1450 1453 1458 1464 1471 1476
1514 1507 1508 1513 1512 1512 1516 1505 1507 1509 1511 1511 1499 1486 1473 1457 1452 1450 1450 1453 1454 1455 1452 1450 1445 1441 1437 1432 1429 1426 1428 1430 1431 1430 1430 1429 1430 1430 1433 1439 1450 1458 1464 1468
1507 1506 1508 1509 1505 1504 1505 1499 1502 1504 1511 1510 1507 1510 1470 1458 1455 1451 1446 1448 1451 1452 1450 1445 1444 1443 1438 1432 1426 1422 1422 1422 1428 1430 1429 1428 1427 1428 1430 1431 1436 1446 1455 1462
1504 1502 1503 1499 1497 1499 1496 1499 1507 1515 1514 1514 1491 1495 1471 1463 1451 1450 1444 1446 1446 1449 1446 1447 1445 1445 1442 1433 1426 1420 1419 1419 1421 1428 1430 1432 1432 1430 1430 1429 1431 1437 1442 1449
1502 1500 1496 1496 1499 1501 1502 1506 1516 1516 1526 1499 1493 1495 1459 1449 1447 1448 1451 1451 1450 1453 1449 1445 1444 1441 1438 1433 1428 1423 1418 1420 1421 1421 1428 1433 1433 1432 1430 1429 1430 1429 1432 1439
1504 1495 1493 1491 1491 1492 1501 1499 1506 1519 1508 1478 1503 1477 1450 1446 1447 1451 1449 1450 1453 1453 1453 1451 1447 1442 1437 1434 1429 1423 1425 1424 1423 1426 1424 1427 1431 1432 1433 1433 1430 1428 1431 1433
1504 1491 1485 1485 1483 1483 1495 1497 1485 1494 1504 1505 1469 1457 1438 1442 1454 1452 1452 1453 1458 1456 1456 1453 1449 1444 1439 1432 1427 1430 1430 1427 1423 1422 1424 1425 1426 1427 1426 1426 1427 1429 1430 1432
1491 1495 1481 1483 1483 1483 1482 1481 1490 1497 1495 1489 1470 1471 1445 1446 1457 1457 1462 1463 1458 1453 1450 1450 1446 1447 1444 1440 1434 1435 1432 1430 1427 1423 1421 1421 1421 1423 1421 1420 1421 1421 1424 1425
1492 1502 1484 1482 1480 1479 1486 1483 1480 1478 1481 1477 1467 1459 1442 1451 1462 1466 1465 1466 1462 1458 1454 1451 1450 1444 1443 1440 1434 1436 1432 1430 1428 1424 1421 1419 1417 1417 1417 1415 1414 1415 1416 1416
1486 1485 1483 1474 1471 1469 1468 1469 1467 1472 1473 1472 1459 1452 1443 1457 1460 1463 1462 1460 1462 1462 1460 1455 1452 1448 1443 1438 1436 1434 1433 1431 1427 1424 1422 1418 1415 1412 1409 1407 1406 1408 1408 1409
1489 1479 1476 1476 1468 1468 1467 1466 1465 1468 1470 1457 1458 1448 1445 1453 1455 1457 1460 1460 1459 1460 1458 1454 1450 1446 1443 1439 1436 1434 1433 1429 1427 1422 1419 1417 1414 1409 1405 1401 1399 1398 1398 1397
1487 1482 1472 1467 1460 1468 1471 1470 1470 1470 1458 1450 1447 1447 1448 1455 1456 1459 1460 1460 1458 1456 1455 1451 1450 1446 1441 1438 1434 1431 1429 1425 1423 1420 1416 1414 1412 1408 1403 1398 1395 1391 1389 1388
1482 1475 1474 1468 1467 1475 1473 1474 1473 1471 1467 1464 1453 1454 1447 1454 1458 1458 1457 1457 1456 1451 1451 1450 1446 1446 1441 1435 1431 1431 1427 1422 1415 1415 1411 1410 1405 1401 1398 1396 1392 1384 1381 1381
1481 1472 1476 1472 1467 1467 1466 1464 1457 1457 1455 1452 1450 1443 1453 1456 1459 1458 1456 1454 1452 1448 1447 1445 1443 1442 1439 1434 1429 1431 1425 1419 1413 1409 1408 1402 1400 1394 1391 1390 1385 1380 1376 1373
1481 1477 1472 1462 1465 1470 1472 1455 1452 1449 1444 1444 1445 1454 1457 1458 1457 1454 1452 1452 1450 1446 1444 1442 1439 1435 1432 1430 1429 1426 1420 1416 1415 1410 1403 1398 1394 1389 1385 1381 1379 1374 1372 1369
1476 1476 1475 1464 1483 1461 1441 1447 1445 1445 1449 1453 1454 1457 1456 1453 1452 1451 1450 1448 1446 1444 1441 1438 1436 1433 1430 1427 1424 1420 1417 1413 1407 1402 1396 1395 1388 1384 1380 1375 1372 1369 1366 1364
1466 1467 1477 1469 1462 1447 1442 1445 1446 1446 1448 1450 1452 1451 1450 1450 1448 1444 1444 1443 1442 1441 1438 1435 1432 1428 1423 1421 1418 1413 1410 1406 1401 1398 1394 1389 1382 1377 1373 1368 1366 1363 1358 1351
1459 1462 1464 1482 1472 1491 1445 1445 1445 1446 1456 1447 1447 1447 1446 1447 1450 1439 1438 1438 1436 1435 1432 1428 1424 1420 1416 1412 1408 1404 1400 1397 1393 1388 1384 1379 1375 1371 1366 1360 1356 1355 1350 1346
1485 1484 1460 1457 1455 1457 1446 1443 1444 1465 1456 1441 1442 1440 1440 1442 1438 1433 1432 1430 1429 1426 1424 1421 1417 1413 1408 1404 1399 1393 1389 1384 1381 1378 1374 1370 1367 1363 1356 1350 1347 1342 1338 1331
1466 1484 1499 1506 1489 1466 1438 1443 1448 1442 1436 1435 1434 1433 1432 1430 1428 1426 1425 1422 1420 1418 1414 1412 1408 1404 1400 1396 1390 1384 1378 1374 1369 1365 1361 1358 1355 1351 1345 1340 1335 1331 1326 1321
1468 1459 1466 1462 1455 1437 1436 1435 1433 1433 1431 1428 1427 1425 1424 1423 1421 1419 1416 1414 1412 1410 1407 1404 1400 1393 1388 1385 1380 1372 1367 1362 1355 1349 1345 1341 1337 1334 1330 1324 1321 1316 1312 1306
1448 1446 1445 1441 1433 1433 1430 1427 1426 1425 1423 1421 1420 1418 1417 1415 1413 1412 1409 1406 1404 1400 1397 1394 1389 1382 1375 1372 1367 1361 1354 1349 1342 1335 1328 1323 1318 1315 1312 1309 1304 1300 1296 1293
1437 1438 1435 1429 1426 1426 1421 1418 1416 1416 1416 1415 1414 1412 1410 1408 1406 1406 1402 1399 1395 1391 1387 1383 1378 1372 1364 1359 1352 1347 1341 1336 1327 1320 1313 1307 1302 1298 1293 1290 1289 1285 1282 1283
1424 1425 1428 1419 1415 1417 1410 1410 1411 1410 1410 1408 1407 1405 1404 1402 1400 1398 1394 1391 1387 1381 1376 1370 1365 1360 1352 1344 1337 1332 1328 1323 1314 1304 1298 1294 1289 1283 1279 1274 1268 1269 1267 1268